Погода в Амаранти

Португалия     41°16′19″N   8°05′06″W
темп.,
°C
ветер,
м/с
пор.,
м/с
влажн.,
%
обл.,
%
осадки,
мм/ч
давл.,
гПа
погр.,
м
13 мая, чт
чт1301:00+9юз2392100 0.1 1022144
04:00+9юз2595100 0.4 1020282
07:00+9юз2697100 0.9 1019370
10:00+10ююз31196100 1.4 1018861
13:00+12зюз41099100 5.7 10161051
16:00+13з599399 2.0 1016947
19:00+12з478692 2.4 1016703
22:00+11з2697100 0.4 1019533
14 мая, пт
пт1401:00+10з229398 0.5 101969
04:00+8зюз119725 0.0 101922
07:00+8юз119798 0.0 102029
10:00+13з22715 0.0 1021656
13:00+17з3449100 0.0 10201131
16:00+18з3550100 0.0 10181209
19:00+15з3467100 0.0 1019802
22:00+10з1192100 0.0 102019
15 мая, сб
сб1501:00+9юз1194100 0.0 102030
04:00+10юз1195100 0.0 101833
07:00+11юз1293100 0.0 101962
10:00+16зюз3577100 0.0 1018796
13:00+18зюз4769100 0.1 10181223
16:00+19з5867100 0.1 10171278
19:00+17зюз3784100 0.3 1017905
22:00+14зюз2497100 0.2 1018268
16 мая, вс
вс1601:00+14зюз2498100 0.3 1017272
04:00+13юз2597100 0.1 1016276
07:00+13зюз3797100 0.4 1016568
10:00+13зюз3897100 1.0 1017724
13:00+14зюз3898100 2.6 1017726
16:00+14з3694100 1.8 1017621
19:00+14з368786 2.6 1018719
22:00+9з2295100 0.1 102125
17 мая, пн
пн1701:00+7з119698 0.1 102116
04:00+7зсз1196100 0.0 102113
07:00+7сз119498 0.0 102227
10:00+13зюз1164100 0.0 1022552
13:00+17зсз35394 0.0 10221401
16:00+18сз4538100 0.0 10211519
19:00+16зсз344926 0.0 10221004
22:00+9юз117749 0.0 102410